x

8461490 - New London, Ct (nlnc3) Weather Station

7:12am - Sat 15th Dec 2018 All times are EST. -5 hours from GMT.

  • Wind
  • Sea Temp 46°f
  • Air Temp 46°f
  • Sea Pressure 1021.7mb
  • 8461490 - New London, Ct
  • 8461490 - New London, Ct

More Historic Weather Station data

Upgrade to MSW Pro to gain access to the past 30 days of data for over 8000 Wavebouys and Weather Stations around the globe.

Join

Comparision Forecast

View Surf forecast
   
Sat 12/15 7:12am  -  2 mph 1021.7mb 46f 46f
7:06am  -  2 mph 1021.7mb 46f 46f
7:00am 2 3 mph 1021.7mb 46f 45f
6:54am  -  1 mph 1021.9mb 46f 45f
6:48am  -  mph 1022mb 46f 45f
6:42am  -  mph 1022.1mb 46f 46f
6:36am  -  mph 1022.2mb 46f 46f
6:30am 2 3 mph 1022.4mb 46f 46f
6:24am  -  3 mph 1022.2mb 46f 46f
6:18am 2 2 mph 1021.9mb 46f 45f
6:12am  -  1 mph 1022mb 46f 44f
6:06am  -  1 mph 1022.1mb 47f 46f
6:00am 1 2 mph 1022.2mb 47f 46f
5:54am  -  2 mph 1022.2mb 47f 46f
5:48am  -  2 mph 1022.1mb 47f 46f
5:42am  -  3 mph 1022.1mb 47f 46f
5:36am 1 3 mph 1022mb 47f 45f
5:30am 1 2 mph 1022.1mb 47f 45f
5:24am  -  0 mph 1022.3mb 47f 46f
5:18am  -  1 mph - - -
5:12am  -  1 mph 1022.2mb 47f 46f
5:06am  -  1 mph 1022.1mb 47f 46f
5:00am  -  1 mph 1022mb - -
4:54am  -  2 mph 1022mb 47f 45f
4:48am 2 3 mph 1022mb 47f 45f
4:42am 1 1 mph 1022.1mb 47f 45f
4:36am  -  2 mph 1022.2mb 47f 46f
4:30am 1 2 mph 1022.3mb 47f 46f
4:24am 1 2 mph 1022.2mb 47f 45f
4:18am  -  0 mph - - -
4:06am  -  2 mph 1022mb 47f 46f
4:00am 1 3 mph 1022mb 47f 45f
3:54am 2 3 mph 1022mb 47f 45f
3:48am 2 3 mph 1022.3mb 47f 45f
3:42am 2 3 mph 1022.5mb 47f 45f
3:36am 2 2 mph 1022.7mb 47f 45f
3:30am 1 2 mph 1022.8mb 47f -
3:24am 1 3 mph 1022.9mb 47f 46f
3:18am 1 3 mph 1022.9mb 47f 46f
3:12am 2 3 mph 1023mb 47f 45f
3:06am 2 2 mph 1023.1mb 47f 46f
3:00am 1 2 mph 1023.2mb 46f 46f
2:54am 1 2 mph 1023.3mb 47f 46f
2:48am  -  1 mph 1023.4mb 47f 46f
2:36am  -  1 mph 1023.3mb 47f 46f
2:30am  -  2 mph 1023.3mb 47f 46f
2:24am  -  1 mph 1023.3mb 47f 46f
2:18am  -  2 mph 1023.3mb 47f 46f
2:12am  -  1 mph 1023.3mb 47f 46f
2:06am  -  2 mph 1023.3mb 47f 46f
2:00am  -  2 mph 1023.3mb 46f 46f
1:54am  -  1 mph 1023.3mb 46f 46f
1:48am 2 2 mph 1023.3mb 46f 46f
1:42am  -  0 mph 1023.4mb 46f 46f
1:36am  -  0 mph 1023.4mb 46f 46f
1:30am  -  1 mph 1023.4mb 46f 46f
1:24am  -  1 mph 1023.4mb 46f 45f
1:18am  -  1 mph 1023.5mb 46f 45f
1:06am 1 2 mph 1023.6mb 46f 45f
1:00am 1 2 mph 1023.6mb 46f 45f
12:54am 1 2 mph 1023.7mb 46f 45f
12:48am 1 2 mph 1023.8mb 46f 46f
12:42am 2 2 mph 1023.7mb 46f 45f
12:36am 1 2 mph 1023.7mb 46f 45f
12:30am  -  2 mph 1023.7mb 46f 45f
12:24am 2 3 mph 1023.8mb 46f 46f
12:18am 2 3 mph 1023.9mb 46f 46f
12:12am  -  2 mph 1024mb 46f 45f
12:06am  -  2 mph 1024mb 46f 45f
12:00am 1 3 mph 1024.1mb 46f 45f
Fri 12/14 11:54pm 1 2 mph 1024.2mb 46f 45f
11:48pm 1 2 mph 1024.2mb 46f 45f
11:42pm 1 2 mph 1024.3mb 46f 46f
11:36pm 1 2 mph 1024.4mb 46f 46f
11:30pm 2 5 mph 1024.5mb 46f 46f
11:24pm 2 5 mph 1024.6mb 46f 46f
11:18pm  -  2 mph 1024.6mb 46f 45f
11:12pm  -  1 mph 1024.7mb 46f 45f
11:06pm 1 2 mph 1024.9mb 46f 45f
11:00pm 1 2 mph 1025mb 46f 45f
10:54pm  -  2 mph 1025.1mb 46f 44f
10:48pm  -  2 mph 1025.1mb 46f 44f
10:42pm 1 2 mph 1025.3mb 46f 45f
10:36pm 1 2 mph 1025.3mb 46f 45f
10:30pm 2 2 mph 1025.4mb 46f 45f
10:24pm 2 5 mph 1025.4mb 46f 46f
10:18pm 3 3 mph 1025.4mb 46f 46f
10:12pm 2 3 mph 1025.4mb 46f 46f
10:06pm 3 5 mph 1025.5mb 46f 45f
10:00pm 3 5 mph 1025.4mb 45f 46f
9:54pm 3 6 mph 1025.4mb 45f 46f
9:48pm 3 6 mph 1025.4mb 45f 46f
9:42pm 3 6 mph 1025.5mb 45f 46f
9:36pm 3 5 mph 1025.6mb 46f 44f
9:30pm 2 5 mph 1025.6mb 46f 44f
9:24pm 3 6 mph 1025.9mb 46f 46f
9:18pm 3 3 mph 1025.9mb 46f 45f
9:12pm 3 6 mph - - -
9:06pm 3 6 mph 1026mb 44f 46f
9:00pm 3 7 mph 1026mb 44f 45f
8:54pm 5 7 mph 1026mb 44f 45f
8:48pm 5 8 mph 1026.1mb - -
8:42pm 5 8 mph 1026.3mb - -
8:36pm 5 7 mph 1026.3mb 45f 45f
8:30pm 5 6 mph 1026.3mb 45f 45f
8:24pm 1 5 mph 1026.3mb 45f 44f
8:18pm 2 5 mph 1026.5mb 44f 45f
8:12pm 2 5 mph 1026.6mb 44f 45f
8:06pm 2 3 mph 1026.6mb 44f 45f
8:00pm 2 3 mph 1026.7mb 44f 44f
7:54pm 1 2 mph 1026.9mb 44f 44f
7:48pm 2 3 mph 1027mb 44f 44f
7:42pm 2 2 mph 1027mb 44f 44f
7:36pm  -  0 mph 1027mb 45f 44f
7:30pm  -  3 mph 1027.2mb 45f 44f
7:24pm 2 3 mph 1027.2mb 45f 45f
7:18pm 2 3 mph 1027.3mb 45f 44f
7:12pm 2 3 mph 1027.3mb 46f 44f
7:06pm 3 5 mph 1027.3mb 45f 44f
7:00pm 1 2 mph 1027.4mb 46f 44f
6:54pm  -  1 mph 1027.6mb 45f 45f
6:48pm  -  2 mph 1027.6mb 46f 44f
6:42pm  -  2 mph 1027.7mb 46f 44f
6:36pm  -  1 mph 1027.6mb 46f 44f
6:30pm  -  1 mph 1027.7mb 46f 45f
6:24pm  -  1 mph 1027.7mb 46f 45f
6:18pm  -  2 mph 1027.8mb 46f 45f
6:12pm 1 2 mph 1027.8mb 46f 45f
6:06pm 2 3 mph 1027.7mb 46f 44f
6:00pm 2 3 mph 1027.6mb 46f 44f
5:54pm 2 3 mph 1027.8mb 46f 44f
5:48pm 3 5 mph 1028mb 46f 44f
5:36pm 1 3 mph 1028.6mb 46f 45f
5:30pm 2 5 mph 1028.6mb 46f 44f
5:24pm 3 6 mph 1028.6mb 46f 45f
5:18pm 2 6 mph 1028.7mb - -
5:12pm 3 5 mph 1028.7mb 46f 44f
5:06pm 2 3 mph 1028.8mb 46f 44f
5:00pm 2 5 mph 1028.8mb 46f 44f
4:54pm 3 5 mph 1028.9mb 46f 44f
4:48pm 2 3 mph 1028.9mb 46f 44f
4:42pm 2 2 mph 1028.9mb 46f 45f
4:36pm 2 2 mph 1028.9mb 46f 45f
4:30pm 2 3 mph 1028.9mb 47f 45f
4:24pm 2 3 mph 1029mb 46f 45f
4:18pm 2 5 mph 1028.9mb 47f 45f
4:12pm 2 6 mph 1029mb 46f 45f
4:06pm 5 6 mph 1029mb 46f 45f
4:00pm 3 6 mph 1029.1mb 47f 45f
3:54pm 2 6 mph 1029.2mb 47f 45f
3:48pm 3 7 mph 1029.2mb 46f 45f
3:42pm 2 6 mph 1029.2mb 46f 45f
3:36pm 2 7 mph 1029.1mb 46f 45f
3:30pm 3 6 mph 1029.1mb 47f 45f
3:24pm 5 7 mph 1029.1mb 47f 45f
3:18pm 3 6 mph 1029.1mb 46f 45f
3:12pm 3 6 mph 1029.1mb 46f 45f
3:06pm 5 7 mph 1029.2mb 46f 45f
3:00pm 2 7 mph 1029.1mb 46f 45f
2:54pm 5 7 mph 1029.2mb 46f 46f
2:48pm 2 5 mph 1029.3mb 46f 46f
2:36pm 3 7 mph 1029.2mb 46f 46f
2:30pm 3 6 mph 1029.2mb 47f 45f
2:24pm 3 5 mph 1029.2mb 47f 45f
2:18pm 3 7 mph 1029.2mb 47f 46f
2:12pm 2 6 mph 1029.1mb 47f 45f
2:06pm 3 7 mph 1029.1mb 47f 46f
2:00pm 3 6 mph 1029.1mb 46f 45f
1:54pm 3 7 mph 1029.2mb 47f 45f
1:48pm 3 8 mph 1029.1mb 47f 45f
1:42pm 3 9 mph 1029mb 47f 46f
1:36pm 6 9 mph 1029.2mb 47f 45f
1:30pm 3 7 mph 1029.2mb 46f 45f
1:24pm 5 7 mph 1029.4mb 45f 45f
1:18pm 3 7 mph 1029.4mb 45f 45f
1:12pm 5 9 mph 1029.3mb 45f 46f
1:06pm 2 9 mph 1029.4mb 45f 45f
1:00pm 6 9 mph 1029.3mb 45f 45f
12:54pm 6 8 mph 1029.6mb 47f 45f
12:48pm 3 8 mph 1029.5mb 46f 46f
12:42pm 5 8 mph 1029.6mb 47f 46f
12:36pm 3 11 mph 1029.6mb 47f 45f
12:30pm 7 9 mph 1029.7mb 47f 45f
12:24pm 3 9 mph 1030.2mb 47f 45f
12:18pm 6 9 mph 1030.7mb - -
12:12pm 6 9 mph 1030.9mb 46f 44f
12:06pm 6 8 mph 1030.9mb 47f 44f
12:00pm 6 9 mph 1030.9mb 47f 45f
11:54am 6 7 mph 1031mb 47f 45f
11:48am 5 7 mph 1031.1mb 47f 45f
11:42am 5 8 mph 1031.2mb 47f 45f
11:36am 3 6 mph 1031.2mb 47f 44f
11:30am 1 5 mph - - -
11:24am 2 3 mph 1031.6mb 47f 43f
11:18am  -  3 mph 1031.6mb 47f 42f
11:06am  -  2 mph 1032.1mb 47f 43f
11:00am 1 3 mph 1032.4mb 47f 41f
10:54am 1 5 mph 1032.5mb 47f 42f
10:48am 5 7 mph 1032.5mb 47f 40f
10:42am 3 6 mph 1032.6mb - -
10:36am 5 7 mph 1032.8mb 47f 40f
10:30am 6 8 mph 1033mb 46f 40f
10:24am 5 6 mph 1033.1mb 46f 40f
10:18am 5 6 mph 1033.2mb 46f 40f
10:06am 7 9 mph 1033.3mb 46f 38f
10:00am 6 7 mph - - -
9:30am 3 8 mph 1033.6mb 46f 37f
9:24am 7 8 mph 1033.7mb 45f 35f
9:18am 6 8 mph 1033.6mb 47f 36f
9:12am 7 8 mph 1033.4mb 46f 35f
9:06am 6 8 mph 1033.2mb 46f 35f
9:00am 3 7 mph 1033.1mb 46f 35f
8:30am 8 11 mph 1033.4mb 46f 33f
8:24am 9 10 mph 1033.6mb 46f 33f
8:18am 7 9 mph 1033.5mb 45f 33f
8:12am 8 11 mph 1033.5mb 46f 32f
8:06am 5 9 mph 1033.3mb 46f 32f
8:00am 5 10 mph 1033.2mb 46f 32f
7:54am 5 10 mph 1033.2mb 46f 32f
7:48am 5 9 mph 1033.2mb 46f 32f
7:42am 7 9 mph 1033.1mb 46f 31f
7:36am 6 11 mph 1033mb 46f 31f
7:30am 6 10 mph 1032.9mb 46f 31f
7:24am 6 8 mph 1032.9mb 46f 31f
7:18am 3 7 mph 1033.1mb 46f 31f
7:12am 5 8 mph 1033.1mb 46f 31f
7:06am 6 9 mph 1033mb 46f 31f
7:00am 5 9 mph 1032.9mb 46f 31f
6:54am 6 9 mph 1032.9mb 46f 31f
6:48am 6 8 mph 1032.8mb 46f 31f
6:42am 5 7 mph - - -
6:36am 5 8 mph 1033.1mb 46f 32f
6:30am 6 8 mph 1032.9mb 46f 32f
6:24am 6 7 mph 1033mb 47f 32f
6:18am 5 7 mph 1032.9mb 47f 32f
6:12am 6 7 mph 1032.9mb 47f 32f
6:06am 5 6 mph 1032.9mb 47f 32f
6:00am 2 5 mph 1032.8mb 47f 32f
5:54am 6 7 mph 1032.9mb 47f 32f
5:48am 6 7 mph 1032.9mb 47f 32f
5:42am 3 6 mph 1032.7mb 47f 32f
5:36am 3 5 mph 1032.8mb 47f 32f
5:30am 2 7 mph 1032.9mb 47f 32f
5:24am 5 7 mph 1032.9mb 47f 32f
5:18am 3 7 mph 1032.9mb 47f 32f
5:06am 1 3 mph 1033mb 47f 32f
5:00am 3 6 mph 1032.9mb 47f 32f
4:54am 3 6 mph 1032.9mb 47f 31f
4:48am 2 5 mph 1032.9mb - -
4:42am 5 6 mph 1032.9mb 47f 32f
4:36am 5 7 mph 1033.1mb 47f 31f
4:30am 6 8 mph 1033mb 47f 31f
4:24am 5 6 mph 1032.9mb 47f 32f
4:18am 5 7 mph 1033mb 47f 32f
4:12am 6 7 mph 1033.1mb 47f 32f
4:06am 5 6 mph 1033mb 47f 32f
4:00am 5 7 mph 1032.9mb 47f 32f
3:30am 5 7 mph - - -
3:24am 5 8 mph 1032.7mb 47f 33f
3:18am 7 9 mph - - -
3:12am 6 8 mph 1032.7mb 47f 33f
3:06am 6 8 mph 1032.9mb 47f 33f
3:00am 6 9 mph 1033mb 47f 33f
2:30am 6 7 mph 1033.5mb 47f 33f
2:24am 2 5 mph 1033.5mb 47f 33f
2:18am 2 6 mph 1033.6mb 47f 34f
2:12am 3 8 mph 1033.6mb 47f 34f
2:06am 3 7 mph 1033.7mb 47f 34f
2:00am 6 7 mph 1033.6mb 47f 35f
1:54am 3 6 mph 1033.7mb 47f 34f
1:48am 3 5 mph 1033.6mb 47f 34f
1:42am 2 5 mph 1033.8mb 47f 34f
1:36am 3 6 mph 1033.8mb 47f 34f
1:30am 2 6 mph 1033.8mb 47f 34f
1:24am 6 10 mph 1033.8mb 47f 34f
1:18am 8 10 mph 1033.9mb 47f 34f
1:12am 5 9 mph 1033.9mb 47f 34f
1:06am 7 10 mph 1033.9mb 47f 34f
1:00am 6 10 mph - - -
12:54am 9 11 mph 1034mb 46f 34f
12:48am 6 9 mph 1034mb 46f 34f
12:42am 7 9 mph 1034mb 46f 34f
12:36am 8 10 mph 1034mb 46f 34f
12:30am 6 8 mph 1034mb 47f 34f
12:24am 7 8 mph 1033.9mb 47f 34f
12:18am 6 9 mph 1033.9mb 47f 34f
12:12am 6 9 mph 1033.9mb 47f 34f
12:06am 7 10 mph 1034mb 47f 34f
12:00am 8 9 mph 1033.9mb 47f 34f
Thu 12/13 11:54pm 6 8 mph 1033.9mb 47f 34f
11:48pm 7 10 mph 1034mb 47f 34f
11:42pm 8 10 mph 1033.9mb 46f 34f
11:36pm 6 9 mph 1033.9mb 46f 34f
11:30pm 8 9 mph 1033.8mb 46f 34f
11:24pm 7 9 mph 1033.9mb 46f 34f
11:18pm 7 10 mph 1033.9mb 47f 34f
11:06pm 7 9 mph 1033.8mb 46f 34f
11:00pm 6 9 mph 1033.8mb 46f 34f
10:54pm 7 9 mph 1033.8mb 46f 34f
10:48pm 7 9 mph 1033.7mb 46f -
10:42pm 6 9 mph 1033.8mb 46f 34f
10:36pm 6 8 mph 1033.7mb 46f 35f
10:30pm 6 8 mph 1033.8mb 47f 35f
10:24pm 5 6 mph 1033.7mb 47f 35f
10:18pm 3 5 mph 1033.7mb 47f 35f
10:12pm 3 6 mph 1033.8mb 47f 35f
10:06pm 2 5 mph 1033.8mb 47f 35f
10:00pm 3 5 mph 1033.8mb 47f 35f
9:54pm 5 6 mph 1033.8mb 47f 35f
9:48pm 3 5 mph 1033.7mb 47f 35f
9:42pm 2 5 mph 1033.6mb 47f 36f
9:36pm 3 5 mph 1033.6mb 47f 35f
9:30pm 3 5 mph 1033.6mb 47f 35f
9:24pm 2 5 mph 1033.6mb 47f 36f
9:18pm 2 5 mph 1033.5mb 47f 35f
9:12pm 2 3 mph 1033.5mb 47f 35f
9:06pm 2 5 mph 1033.5mb 47f 36f
9:00pm 2 5 mph 1033.4mb 47f 36f
8:54pm 2 3 mph 1033.3mb 46f 36f
8:48pm 2 3 mph 1033.4mb 47f 36f
8:42pm 3 6 mph 1033.4mb 46f 36f
8:36pm 3 6 mph 1033.3mb 46f 36f
8:30pm 5 7 mph - - -
8:24pm 5 6 mph 1033.3mb 46f 36f
8:18pm 3 6 mph 1033.4mb 47f 36f
8:12pm 5 8 mph 1033.4mb 47f 35f
8:06pm 6 7 mph 1033.4mb 46f 35f
8:00pm 3 9 mph 1033.5mb 46f 35f
7:54pm 5 7 mph 1033.5mb 46f 35f
7:48pm 2 7 mph 1033.5mb 46f 35f
7:42pm 5 7 mph 1033.5mb 46f 35f
7:36pm 5 7 mph 1033.4mb 46f 35f
7:30pm 2 5 mph 1033.5mb 46f 35f
7:24pm 6 7 mph 1033.5mb 46f 35f
7:18pm 2 5 mph 1033.6mb 46f 35f
7:12pm 3 8 mph 1033.6mb 46f 35f
7:06pm 6 8 mph 1033.6mb 46f 35f
7:00pm 3 5 mph 1033.5mb 46f 34f
6:54pm 2 6 mph 1033.5mb 46f 34f
6:48pm 1 6 mph 1033.5mb 46f 34f
6:42pm 2 6 mph 1033.5mb 46f 34f
6:36pm 2 6 mph 1033.4mb 46f 35f
6:30pm 2 5 mph 1033.3mb 46f 35f
6:24pm 2 7 mph 1033.4mb 46f 35f
6:18pm 5 7 mph 1033.3mb 46f 35f
6:12pm 6 10 mph 1033.2mb 46f 35f
6:06pm 5 7 mph 1033.3mb 47f 35f
6:00pm 5 8 mph 1033.4mb 46f 35f
5:54pm 3 7 mph 1033.4mb 47f 35f
5:48pm 6 8 mph 1033.3mb 47f 35f
5:42pm 5 8 mph 1033.3mb 47f 35f
5:36pm 6 8 mph 1033.4mb 47f 35f
5:30pm 6 9 mph 1033.4mb 47f 35f
5:24pm 5 8 mph 1033.3mb 47f 35f
5:18pm 5 7 mph 1033.4mb 47f 35f
5:06pm 2 7 mph 1033.4mb 47f 35f
5:00pm 6 8 mph 1033.3mb 47f 35f
4:54pm 5 8 mph 1033.2mb 47f 35f
4:48pm 6 10 mph 1033.2mb 47f 35f
4:42pm 7 9 mph 1033.1mb 47f 35f
4:36pm 8 14 mph 1033mb 46f 35f
4:30pm 6 10 mph 1033mb 47f 35f
4:24pm 6 9 mph 1033mb 47f 35f
4:18pm 6 9 mph 1032.9mb 47f 36f
4:12pm 5 8 mph 1032.9mb 47f 36f
4:06pm 7 13 mph 1032.9mb 47f 36f
4:00pm 6 10 mph 1032.8mb 47f 36f
3:54pm 7 9 mph 1032.8mb 47f 36f
3:48pm 5 10 mph 1032.9mb 47f 36f
3:36pm 6 9 mph 1032.8mb 47f 36f
3:30pm 5 8 mph 1032.7mb 47f 36f
3:24pm 8 10 mph 1032.7mb 47f 36f
3:18pm 7 9 mph 1032.7mb 47f 36f
3:12pm 6 8 mph 1032.7mb 47f 35f
3:06pm 6 8 mph 1032.5mb 47f 35f
3:00pm 5 8 mph 1032.5mb 47f 35f
2:54pm 5 7 mph 1032.3mb 47f 35f
2:48pm 5 9 mph 1032.3mb 47f 35f
2:42pm 6 9 mph 1032.2mb 47f 35f
2:36pm 7 9 mph 1032.2mb 47f 35f
2:30pm 5 9 mph 1032.2mb 47f 34f
2:24pm 7 9 mph 1032.1mb 47f 34f
2:18pm 5 9 mph 1032mb 47f 34f
2:12pm 6 10 mph 1032mb 47f 34f
2:06pm 6 9 mph 1031.9mb 47f 34f
2:00pm 7 10 mph 1031.8mb 47f 35f
1:54pm 6 8 mph 1031.9mb 47f 35f
1:48pm 8 11 mph 1031.9mb 47f 35f
1:42pm 7 11 mph 1031.8mb 47f 35f
1:36pm 6 11 mph 1031.8mb 47f 35f
1:30pm 7 10 mph 1031.8mb 47f 35f
1:24pm 8 13 mph 1031.8mb 47f 35f
1:18pm 6 10 mph 1031.8mb 47f 35f
1:12pm 6 10 mph - - -
1:06pm 3 9 mph 1031.8mb 47f 35f
1:00pm 5 8 mph 1031.8mb 47f 35f
12:48pm 8 11 mph 1031.8mb 47f 34f
12:42pm 7 11 mph 1031.8mb 47f 34f
12:36pm 7 10 mph 1031.7mb 47f 35f
12:30pm 8 11 mph 1031.8mb 47f 35f
12:24pm 5 13 mph 1031.7mb 47f 35f
12:18pm 10 14 mph 1031.7mb 47f 35f
12:06pm 7 10 mph 1031.7mb 47f 35f
12:00pm 7 9 mph 1031.6mb 47f 35f
11:54am 7 9 mph 1031.7mb 47f 35f
11:48am 3 8 mph 1031.8mb 47f 35f
11:42am 6 9 mph 1031.7mb 47f 35f
11:36am 5 10 mph 1031.8mb 47f 34f
11:30am 8 13 mph 1031.8mb 47f 34f
11:24am 5 8 mph 1031.9mb 47f 34f
11:18am 6 10 mph 1031.9mb 47f 34f
11:06am 7 10 mph 1032mb 47f 34f
11:00am 7 10 mph 1032mb 47f 34f
10:54am 8 11 mph 1032.1mb 47f 34f
10:48am 8 13 mph 1032.1mb 47f 33f
10:42am 7 11 mph 1032.2mb 47f 33f
10:36am 9 14 mph 1032.3mb 47f 33f
10:30am 3 7 mph 1032.3mb 47f 33f
10:24am 5 8 mph 1032.4mb 47f 33f
10:18am 3 8 mph 1032.4mb 47f 33f
10:12am 3 7 mph 1032.4mb 47f 32f
10:06am 5 8 mph 1032.5mb 47f 32f
10:00am 5 7 mph 1032.4mb 47f 32f
9:54am 3 8 mph 1032.4mb 47f 31f
9:48am 6 9 mph 1032.5mb 47f 31f
9:42am 5 9 mph 1032.5mb 47f 30f
9:36am 3 7 mph 1032.5mb 47f 30f
9:30am 5 9 mph 1032.3mb 47f 30f
9:24am 6 8 mph 1032.3mb 47f 29f
9:18am 6 9 mph 1032.1mb 47f 29f
9:12am 5 8 mph 1032.1mb 47f 29f
9:06am 5 8 mph 1032.1mb 47f 28f
9:00am 3 7 mph 1032mb 47f 28f
8:54am 3 5 mph 1031.9mb 46f 28f
8:48am 2 6 mph 1031.7mb 47f 28f
8:42am 1 7 mph 1031.8mb 47f 27f
8:12am 3 8 mph 1031.8mb 46f 26f
8:06am 5 9 mph 1031.7mb 46f 26f
8:00am 5 9 mph 1031.6mb 46f 26f
7:54am 6 7 mph 1031.5mb 46f 26f
7:48am 5 7 mph 1031.5mb 46f 25f
7:42am 3 6 mph 1031.3mb 46f 25f
7:36am 2 6 mph 1031.1mb 46f 25f
7:30am 3 7 mph 1031.2mb 47f 25f
7:24am 5 7 mph 1031.2mb 47f 25f
7:18am 2 6 mph 1031.1mb 47f 25f
7:12am 6 8 mph 1031.2mb 47f 25f
7:06am 6 8 mph 1031.3mb 47f 25f
7:00am 3 8 mph 1031mb 47f 25f
6:54am 3 7 mph 1030.9mb 47f 25f
6:48am 2 7 mph 1030.9mb 47f 26f
6:42am 6 8 mph 1030.9mb 47f 25f
6:36am 5 8 mph 1030.9mb 47f 25f
6:30am 3 8 mph 1030.9mb 47f 26f
6:24am 3 8 mph 1030.8mb 47f 26f
6:18am 3 6 mph 1030.5mb 47f 25f
6:12am 2 7 mph 1030.5mb 47f 26f
6:06am 5 6 mph 1030.4mb 47f 25f
6:00am 3 6 mph 1030.3mb 47f 25f
5:54am 3 6 mph 1030mb 47f 26f
5:48am 3 5 mph 1030mb 47f 25f
5:42am 2 6 mph 1029.8mb 47f 26f
5:36am 2 6 mph 1029.8mb 47f 25f
5:30am 3 6 mph 1029.8mb 47f 26f
5:24am 2 5 mph 1029.7mb 47f 26f
5:18am 3 6 mph 1029.7mb 47f 26f
5:12am 3 5 mph 1029.7mb 47f 26f
5:06am 3 5 mph 1029.7mb 47f 26f
5:00am 3 5 mph 1029.8mb 47f 26f
4:54am 3 5 mph 1029.8mb 47f 26f
4:48am 2 5 mph 1029.8mb 47f 26f
4:42am 2 5 mph 1029.6mb 47f 26f
4:36am 1 6 mph 1029.5mb 47f 26f
4:30am 2 6 mph 1029.5mb 47f 26f
4:24am 3 6 mph 1029.4mb 47f 25f
4:18am 3 6 mph 1029.3mb 47f 25f
4:12am 5 8 mph 1029.1mb 47f 26f
4:06am 3 7 mph 1029mb 47f 26f
4:00am 2 6 mph 1029mb 47f 25f
3:54am 3 6 mph 1028.9mb 47f 26f
3:48am 1 5 mph 1029.3mb 47f 25f
3:42am 3 6 mph 1029.4mb 47f 25f
3:36am 2 3 mph 1029.2mb 47f 25f
3:30am 2 3 mph 1029mb 47f 25f
3:24am 2 7 mph 1029mb 47f 25f
3:18am 3 5 mph 1028.9mb 47f 25f
3:12am 2 6 mph 1029.1mb 47f 26f
3:06am 2 5 mph 1029.2mb 47f 26f
3:00am 3 6 mph 1029.3mb 47f 25f
2:54am 2 3 mph 1029.4mb 47f 25f
2:48am 2 5 mph 1029.4mb 47f 25f
2:42am 2 5 mph 1029.3mb 47f 25f
2:36am 2 5 mph 1029.2mb 47f 25f
2:30am 2 5 mph 1029.3mb 46f 25f
2:24am 2 5 mph 1029.1mb 46f 25f
2:18am 2 5 mph 1029mb 46f 26f
2:12am 2 5 mph 1028.7mb 46f 26f
2:06am 2 5 mph 1028.5mb 46f 26f
2:00am 2 5 mph 1028.4mb 46f 26f
1:54am 2 6 mph 1028.1mb 46f 26f
1:48am 5 6 mph 1027.8mb 46f 26f
1:42am 5 7 mph 1027.7mb 46f 27f
1:36am 3 5 mph 1027.6mb 46f 26f
1:30am 2 5 mph 1027.5mb 46f 26f
1:24am 2 7 mph 1027.2mb 46f 27f
1:18am 6 7 mph 1027.1mb 46f 27f
1:12am 2 5 mph 1027.3mb 46f 27f
1:06am 2 5 mph 1027.4mb 46f 27f
1:00am 3 5 mph 1027.4mb 46f 27f
12:54am 1 3 mph 1027.2mb 46f 27f
12:48am 3 6 mph 1027mb 46f 27f
12:42am 1 6 mph 1026.9mb 46f 27f
12:36am 2 5 mph 1026.7mb 46f 27f
12:30am 2 3 mph - - -
12:24am 2 6 mph 1026.6mb 46f 27f
12:18am 3 6 mph 1026.6mb 46f 28f
12:12am 3 5 mph 1026.5mb 46f 28f
12:06am 3 5 mph 1026.6mb 46f 28f
12:00am 2 3 mph 1026.5mb 46f 28f
Wed 12/12 11:54pm 3 5 mph 1026.4mb 46f 28f
11:48pm 1 3 mph 1026.4mb 46f 28f
11:42pm 2 5 mph 1026.5mb 46f 28f
11:36pm  -  5 mph 1026.4mb 46f 28f
11:30pm 3 6 mph 1026.6mb 46f 29f
11:24pm 2 5 mph 1026.6mb 46f 28f
11:18pm 3 6 mph 1026.7mb 46f 28f
11:12pm 3 6 mph 1026.6mb 46f 28f
11:06pm 2 6 mph 1026.5mb 46f 28f
11:00pm 2 5 mph 1026.3mb 46f 28f
10:54pm 2 5 mph 1026.4mb 46f 29f
10:48pm 3 5 mph 1026.2mb 47f 29f
10:42pm 2 5 mph 1026.1mb 47f 29f
10:36pm 3 5 mph 1025.9mb 47f 29f
10:30pm 1 5 mph 1025.8mb 47f 29f
10:24pm 2 5 mph 1025.6mb 47f 29f
10:18pm 3 6 mph 1025.6mb 47f 29f
10:12pm 2 5 mph 1025.6mb 47f 29f
10:06pm 2 6 mph 1025.5mb 47f 30f
10:00pm 3 6 mph 1025.4mb 47f 30f
9:54pm 1 3 mph 1025.4mb 47f 29f
9:48pm 1 3 mph 1025.3mb 47f 30f
9:42pm 2 6 mph 1025.1mb 47f 31f
9:36pm 2 7 mph 1025.1mb 47f 31f
9:30pm 3 6 mph 1025.2mb 47f 31f
9:24pm 3 6 mph 1025.1mb 47f 31f
9:18pm 2 6 mph 1024.9mb 47f 31f
9:12pm 3 5 mph 1024.7mb 47f 31f
9:06pm  -  3 mph 1024.4mb 47f 31f
9:00pm 2 6 mph 1024.3mb 47f 31f
8:54pm 2 5 mph 1024.4mb 47f 31f
8:48pm  -  3 mph 1024.4mb 47f 31f
8:42pm 2 5 mph 1024.3mb 47f 32f
8:36pm 1 3 mph 1024.1mb 47f 32f
8:30pm 3 8 mph 1024.2mb 47f 32f
8:24pm 1 5 mph 1024.1mb 47f 31f
8:18pm 1 3 mph 1024.1mb 47f 32f
8:12pm 1 5 mph 1024.2mb 46f 32f
8:06pm 2 6 mph 1024mb 46f 32f
8:00pm 6 7 mph 1023.9mb 46f 33f
7:54pm 3 6 mph 1023.8mb 47f 33f
7:48pm 5 7 mph 1023.7mb 46f 33f
7:42pm 3 6 mph 1023.7mb 46f 32f
7:36pm 3 5 mph 1023.6mb 45f 32f
7:30pm 2 5 mph 1023.5mb 46f 32f
7:24pm 2 3 mph 1023.5mb 46f 32f
7:18pm 2 3 mph 1023.3mb 46f 32f
7:12pm 2 5 mph 1023.1mb 46f 32f
7:06pm 3 5 mph 1023.2mb 46f 33f
7:00pm 2 3 mph 1023.1mb 46f 33f
6:54pm 1 3 mph 1023mb 46f 33f
6:48pm 3 6 mph 1022.9mb 46f 33f
6:42pm 3 5 mph 1022.9mb 45f 33f
6:36pm 3 5 mph 1022.9mb 45f 34f
6:30pm 3 5 mph 1022.8mb 46f 34f
6:24pm 1 5 mph 1022.7mb 45f 33f
6:18pm 1 3 mph 1022.6mb 46f 33f
6:12pm 2 3 mph 1022.5mb 46f 33f
6:06pm 1 2 mph 1022.3mb 46f 33f
6:00pm 1 3 mph 1022.2mb 45f 33f
5:54pm 1 5 mph 1022mb 44f 34f
5:48pm 3 5 mph - - -
5:42pm 3 6 mph 1021.7mb 46f 35f
5:36pm 3 6 mph 1021.6mb 46f 35f
5:30pm 5 6 mph 1021.5mb 46f 35f
5:24pm 3 6 mph 1021.4mb 47f 35f
5:18pm 3 6 mph 1021.3mb 47f 35f
5:12pm 5 8 mph 1021.1mb 47f 35f
5:06pm 6 8 mph 1021mb 47f 36f
5:00pm 7 10 mph 1021mb 47f 36f
4:54pm 6 8 mph 1020.9mb 47f 36f
4:48pm 5 7 mph 1020.8mb 47f 35f
4:42pm 3 6 mph 1020.7mb 46f 35f
4:36pm 2 8 mph 1020.8mb 46f 36f
4:30pm 3 10 mph 1020.7mb 46f 36f
4:24pm 6 11 mph 1020.6mb 47f 36f
4:18pm 6 13 mph 1020.5mb 47f 36f
4:12pm 6 10 mph 1020.3mb 46f 36f
4:06pm 3 8 mph 1020.2mb 47f 37f
4:00pm 3 8 mph 1020mb 46f 37f
3:54pm 7 13 mph 1019.9mb 46f 37f
3:48pm 5 10 mph 1019.8mb 46f 38f
3:42pm 6 9 mph 1019.6mb 47f 38f
3:36pm 7 11 mph 1019.5mb 46f 38f
3:30pm 5 7 mph 1019.4mb 46f 38f
3:24pm 3 6 mph 1019.2mb 46f 38f
3:18pm 5 9 mph 1019.1mb 46f 38f
3:12pm 6 10 mph 1018.9mb 46f 38f
3:06pm 5 10 mph 1018.8mb 46f 38f
3:00pm 7 11 mph 1018.7mb 46f 38f
2:54pm 3 11 mph 1018.6mb 46f 38f
2:48pm 9 14 mph 1018.4mb 47f 38f
2:42pm 6 10 mph 1018.4mb 47f 39f
2:36pm 8 13 mph 1018.4mb 47f 39f
2:30pm 8 14 mph 1018.2mb 47f 39f
2:24pm 6 13 mph 1018.1mb 47f 39f
2:18pm 8 13 mph 1018mb 47f 39f
2:12pm 10 14 mph 1018mb 47f 39f
2:06pm 9 14 mph 1018mb 47f 38f
2:00pm 8 15 mph 1017.9mb 47f 38f
1:54pm 11 16 mph 1017.9mb 47f 39f
1:48pm 6 11 mph 1017.9mb 47f 40f
1:42pm 5 11 mph 1017.8mb 47f 40f
1:36pm 9 16 mph 1017.8mb 47f 39f
1:30pm 7 14 mph 1017.6mb 47f 39f
1:24pm 7 14 mph 1017.6mb 47f 39f
1:18pm 10 17 mph 1017.6mb 47f 39f
1:12pm 10 17 mph 1017.7mb 47f 39f
1:06pm 10 15 mph 1017.8mb 47f 39f
1:00pm 8 13 mph 1017.8mb 47f 40f
12:54pm 9 16 mph 1017.7mb 47f 40f
12:48pm 7 11 mph 1017.8mb 47f 40f
12:42pm 8 16 mph 1017.8mb 47f 39f
12:36pm 7 15 mph 1018mb 47f 39f
12:30pm 10 15 mph 1018mb 47f 39f
12:24pm 11 18 mph 1018mb 47f 39f
12:18pm 9 14 mph 1017.9mb - -
12:12pm 6 13 mph 1017.9mb 47f 40f
12:06pm 9 14 mph 1018mb 47f 38f
12:00pm 8 14 mph 1018mb 47f 38f
11:48am 7 16 mph 1018mb 47f -
11:42am 8 14 mph 1018mb 47f -
11:36am 10 20 mph 1018mb 47f -
11:30am 11 20 mph 1018mb 47f 37f
11:24am 10 17 mph 1018mb 47f 38f
11:18am 9 18 mph 1018.1mb 47f 38f
11:06am 10 14 mph 1018mb 47f 37f
11:00am 7 14 mph 1018mb 47f 37f
10:54am 10 15 mph 1018mb 47f 37f
10:48am 7 10 mph - - -
10:42am 6 10 mph 1018.2mb 47f 37f
10:36am 8 16 mph 1018.2mb 47f 37f
10:30am 8 13 mph 1018.3mb 47f 37f
10:24am 3 14 mph 1018.3mb 47f 37f
10:18am 8 15 mph 1018.4mb 47f 36f
10:12am 7 13 mph 1018.3mb 46f 36f
10:06am 6 16 mph 1018.3mb 47f 36f
10:00am 6 13 mph 1018.2mb 47f 36f
9:54am 7 13 mph 1018mb 47f 36f
9:48am 7 13 mph 1017.9mb 47f 35f
9:42am 5 10 mph 1017.8mb 47f 35f
9:36am 5 11 mph 1017.9mb 47f 35f
9:30am 6 14 mph 1018mb 47f 35f
9:24am 5 11 mph 1017.9mb 47f 35f
9:18am 6 14 mph 1017.8mb 47f 34f
9:12am 5 13 mph 1017.7mb 47f 34f
9:06am 3 11 mph 1017.6mb 47f 34f
9:00am 3 8 mph 1017.5mb 47f 34f
8:48am 6 11 mph 1017.3mb 47f 33f
8:42am 5 9 mph 1017.2mb 47f 33f
8:36am 5 6 mph 1017.1mb 47f 32f
8:30am 5 10 mph 1017.1mb 47f 32f
8:24am 5 8 mph 1017.1mb 47f 32f
8:18am 6 10 mph 1017mb 47f 31f
8:12am 3 8 mph 1017mb 47f 31f
8:06am 3 10 mph 1016.9mb 47f 31f
8:00am 5 9 mph 1016.8mb 47f 30f
7:48am 3 6 mph 1016.6mb 47f 29f
7:42am 3 6 mph 1016.4mb 47f 29f
7:36am 1 5 mph 1016.4mb 47f 28f
7:30am 2 5 mph 1016.2mb 47f 29f
7:24am 2 6 mph 1016.1mb 46f 29f
7:18am 3 6 mph 1016.1mb 46f 29f
7:12am 3 6 mph 1016mb 46f 29f
7:06am 2 7 mph 1015.9mb 46f 29f
7:00am 3 7 mph 1015.9mb 46f 29f
6:54am 3 6 mph 1015.9mb 47f 29f
6:48am 2 5 mph 1015.8mb 47f 29f
6:42am 2 6 mph 1015.6mb 46f 29f
6:36am 3 6 mph 1015.6mb 46f 29f
6:30am 1 3 mph 1015.5mb 46f 29f
6:24am 2 5 mph 1015.4mb 46f 29f
6:18am 2 6 mph 1015.2mb 46f 29f
6:12am  -  3 mph 1015.1mb 46f 29f
6:06am 1 3 mph 1015mb 46f 28f
6:00am  -  2 mph 1014.9mb 46f 28f
5:54am  -  2 mph 1014.8mb 46f 28f
5:48am 1 3 mph 1014.7mb 46f 28f
5:42am 2 3 mph 1014.7mb 46f 28f
5:36am 2 5 mph 1014.6mb 46f 28f
5:30am 2 3 mph 1014.5mb 46f 28f
5:24am 2 5 mph 1014.4mb 46f 28f
5:18am 3 5 mph 1014.2mb 46f 28f
5:12am 2 5 mph 1014.2mb 46f 28f
5:06am 2 5 mph 1014.2mb 46f 28f
5:00am 2 5 mph 1014.3mb 46f 27f
4:54am 2 6 mph 1014.2mb 46f 27f
4:48am 3 6 mph 1014.1mb 46f 28f
4:42am 2 7 mph 1014.1mb 46f 28f
4:36am 3 5 mph 1014mb 46f 28f
4:30am 2 5 mph 1013.9mb 46f 28f
4:24am 2 5 mph 1013.9mb 46f 28f
4:18am 3 7 mph 1013.8mb 46f 28f
4:12am 3 6 mph 1013.7mb 46f 28f
4:06am 2 8 mph 1013.7mb 46f 28f
4:00am 3 7 mph 1013.7mb 46f 28f
3:54am 5 7 mph 1013.6mb 46f 28f
3:48am 2 6 mph 1013.6mb 46f 28f
3:42am 3 7 mph 1013.5mb 46f 28f
3:36am 2 5 mph 1013.4mb 46f 28f
3:30am 3 9 mph 1013.3mb 46f 29f
3:24am 2 7 mph 1013.2mb 46f 29f
3:12am 3 6 mph 1013.2mb 46f 29f
3:06am 2 7 mph 1013.1mb 46f 29f
2:54am 3 13 mph 1012.9mb 46f 30f
2:48am 6 13 mph 1012.8mb 47f -
2:42am 3 9 mph 1012.8mb 47f 30f
2:36am 5 9 mph 1012.7mb 47f 30f
2:30am 7 11 mph 1012.6mb 47f 31f
2:24am 6 17 mph 1012.5mb 47f 31f
2:18am 6 9 mph 1012.6mb 47f 32f
2:12am 6 14 mph 1012.5mb 47f 32f
2:06am 9 15 mph 1012.4mb 47f 32f
2:00am 6 14 mph 1012.4mb 47f 32f
1:54am 9 14 mph 1012.2mb 47f 32f
1:48am 8 13 mph 1012.2mb 47f 33f
1:42am 9 14 mph 1012.1mb 47f 33f
1:36am 9 13 mph 1012mb 47f 33f
1:30am 9 14 mph 1011.9mb 47f 33f
1:24am 9 13 mph 1011.9mb 47f 33f
1:18am 8 10 mph 1011.9mb 47f 33f
1:06am 5 6 mph 1011.9mb 47f 33f
1:00am 5 6 mph 1011.9mb 47f 33f
12:54am 5 6 mph 1011.8mb 47f 33f
12:48am 3 5 mph 1011.8mb 47f 33f
12:42am 5 6 mph 1011.8mb 47f 33f
12:36am 3 7 mph 1011.8mb 47f 32f
12:30am 2 6 mph 1011.9mb 47f 32f
12:24am 2 3 mph 1012mb 47f 32f
12:18am 1 6 mph 1012mb 47f 32f
12:12am 5 7 mph 1012.1mb 47f 32f
12:06am 2 7 mph 1012.1mb 47f 32f
12:00am 3 6 mph 1012.2mb 47f 32f
Tue 12/11 11:54pm 3 5 mph 1012.2mb 47f 32f
11:48pm 2 5 mph 1012.2mb 47f 32f
11:42pm 2 5 mph 1012.3mb 47f 32f
11:36pm 2 5 mph 1012.3mb 47f 32f
11:30pm 3 5 mph 1012.3mb 47f 32f
11:24pm 3 6 mph 1012.4mb 47f 31f
11:18pm 3 5 mph 1012.4mb 47f 31f
11:12pm 5 7 mph 1012.5mb 46f 31f
11:06pm 3 7 mph 1012.5mb 46f 31f
11:00pm 5 7 mph 1012.5mb 46f 31f
10:54pm 5 7 mph 1012.7mb 46f 31f
10:48pm 5 5 mph 1012.8mb - -
10:42pm 3 6 mph 1012.9mb 46f 31f
10:36pm 3 5 mph 1013mb 46f 31f
10:30pm 3 5 mph 1013mb 46f 31f
10:24pm 3 5 mph 1013.1mb 46f 31f
10:18pm 2 5 mph 1013.1mb 46f 31f
10:12pm 3 5 mph 1013.2mb 46f 31f
10:06pm 3 5 mph 1013.3mb 46f 31f
10:00pm 3 5 mph 1013.3mb 46f 31f
9:12pm 2 5 mph 1013.4mb 47f 31f
9:06pm 3 6 mph 1013.5mb 47f 31f
9:00pm 3 6 mph 1013.5mb 47f 31f
8:54pm 3 5 mph 1013.6mb 47f 31f
8:48pm 3 5 mph 1013.7mb 47f 31f
8:42pm 3 6 mph 1013.7mb 47f 31f
8:36pm 3 6 mph 1013.7mb 47f 31f
8:30pm 5 6 mph 1013.9mb 47f 31f
8:24pm 3 6 mph 1014mb 47f 31f
8:18pm 3 5 mph 1014mb 47f 31f
8:12pm 2 5 mph 1014.1mb 47f 31f
8:06pm 2 5 mph 1014.2mb 47f 31f
8:00pm 5 6 mph 1014.2mb 47f 31f
7:48pm 6 7 mph 1014.4mb 47f 31f
7:42pm 3 6 mph 1014.4mb 46f 31f
7:36pm 3 7 mph 1014.3mb 47f 31f
7:30pm 3 6 mph 1014.3mb 46f 31f
7:24pm 5 6 mph 1014.3mb 46f 31f
7:18pm 3 5 mph 1014.4mb - -
7:12pm 3 5 mph 1014.6mb - -
7:06pm 3 5 mph 1014.6mb 46f 31f
6:54pm 3 6 mph 1014.4mb 47f 32f
6:48pm 3 6 mph - - -
6:42pm 5 6 mph 1014.2mb 47f 32f
6:36pm 5 6 mph 1014.2mb 46f 32f
6:30pm 3 6 mph 1014.3mb 46f 32f
6:24pm 3 6 mph 1014.4mb 46f 32f
6:18pm 3 6 mph 1014.6mb - -
6:12pm 3 6 mph 1014.6mb 46f 33f
6:06pm 3 5 mph 1014.7mb 46f 33f
6:00pm 3 6 mph 1014.7mb 46f 33f
5:18pm 2 3 mph 1014.7mb 46f 34f
5:12pm 3 5 mph 1014.6mb 46f 35f
5:06pm 3 5 mph 1014.5mb 46f 35f
5:00pm 2 3 mph 1014.4mb 46f 35f
4:54pm 2 2 mph 1014.4mb 46f 35f
4:48pm 2 2 mph 1014.6mb 46f 35f
4:42pm 2 2 mph 1014.7mb 46f 35f
4:36pm  -  2 mph 1014.6mb 46f 36f
4:30pm 2 3 mph 1014.5mb 46f 36f
4:24pm 2 3 mph 1014.7mb 46f 36f
4:18pm 2 2 mph 1014.9mb 46f 36f
4:12pm 2 3 mph 1015mb 46f 36f
4:06pm 3 3 mph 1015mb 46f 36f
4:00pm 2 3 mph 1015.1mb 47f 36f
3:54pm 2 3 mph 1015.2mb 47f 36f
3:48pm 3 5 mph 1015.2mb 47f 36f
3:42pm 3 5 mph 1015.3mb 47f 36f
3:36pm 1 2 mph 1015.4mb 47f 37f
3:30pm 2 2 mph 1015.5mb 47f 37f
3:24pm  -  2 mph 1015.5mb 47f 37f
3:18pm  -  2 mph 1015.5mb 47f 37f
3:12pm  -  1 mph 1015.7mb 47f 37f
3:06pm 1 2 mph 1015.8mb 47f 36f
3:00pm 1 2 mph 1015.9mb 47f 36f
2:54pm  -  1 mph 1015.9mb 47f 36f
2:48pm  -  1 mph 1016mb 47f 36f
2:42pm  -  2 mph 1016.2mb 47f 36f
2:36pm 2 5 mph 1016.2mb 47f 36f
2:30pm 5 6 mph 1016.3mb 47f 37f
2:24pm 2 6 mph 1016.3mb 47f 37f
2:18pm 2 3 mph 1016.5mb 47f 37f
2:06pm 2 3 mph 1016.6mb 47f 37f
2:00pm 2 2 mph 1016.6mb 47f 38f
1:48pm 1 2 mph 1016.6mb 47f 37f
1:42pm  -  2 mph 1016.8mb 47f 37f